Theta_e
290 289 289 289 289 289 288 289 289 289 290 289 289 289 289 289 290 289 290 290 290 290 289 289 288 289 288 289 289 288 287 287 287 286 286 286 286 285 285 285 284 284 283 284 283 283 283 283 283 283 282 283 282 282 283 283 282 281 281 282 282 282
290 289 289 288 288 288 288 288 289 289 289 289 289 289 289 289 289 289 289 289 289 289 288 288 288 288 288 288 288 287 286 286 286 285 285 284 284 284 284 283 282 282 282 282 282 282 282 281 281 281 281 281 281 281 281 281 281 280 280 280 281 282
289 289 289 288 288 288 288 288 288 288 289 288 289 288 288 288 288 289 289 289 288 288 287 287 288 287 288 287 287 286 285 285 285 284 284 284 283 283 283 282 282 281 281 281 281 280 280 280 280 280 280 280 279 279 280 280 279 279 279 279 279 280
289 289 289 288 288 288 287 288 287 287 288 288 288 288 288 287 288 288 288 288 288 287 287 287 287 287 287 286 286 285 284 284 283 283 283 282 282 282 281 281 281 280 280 280 280 280 279 279 279 279 279 278 278 278 279 279 278 278 278 278 278 278
290 289 288 288 287 287 287 287 287 287 287 288 288 288 287 288 288 288 288 287 287 287 287 287 286 286 286 285 284 283 283 282 282 282 281 281 281 281 280 280 279 279 279 279 279 279 278 278 278 278 278 277 277 276 277 277 277 277 277 277 277 277
290 289 288 287 287 287 286 287 287 287 287 287 287 287 287 288 288 288 287 287 287 287 286 286 286 285 284 284 283 282 282 281 281 281 280 280 280 279 279 279 278 278 278 278 278 277 277 277 277 277 277 277 276 276 276 276 277 277 277 277 277 277
289 288 288 287 287 286 286 286 286 286 286 287 287 287 288 288 288 287 287 287 286 286 285 285 284 284 284 283 282 281 280 280 279 279 279 279 278 278 278 278 278 277 277 277 276 276 276 276 276 276 276 276 276 275 276 276 277 277 277 277 277 277
289 289 288 287 287 286 286 286 286 286 286 287 288 287 287 287 287 287 286 286 285 285 284 284 284 284 283 282 281 280 279 279 278 278 278 277 277 277 277 276 276 276 275 276 275 275 275 275 275 275 275 275 275 275 276 276 276 276 276 276 276 276
289 289 288 287 287 286 286 286 286 286 286 286 287 287 287 287 287 286 286 285 284 284 284 284 284 283 282 281 280 279 278 278 277 277 277 277 276 276 276 275 275 275 275 275 275 274 274 274 274 274 274 274 275 276 276 276 276 276 276 276 276 276
289 289 288 287 287 287 287 287 286 286 286 286 286 287 287 287 286 285 285 284 284 284 284 284 284 283 282 280 279 278 277 277 276 276 276 275 275 275 274 274 274 274 274 274 274 274 274 274 274 274 274 274 275 275 275 275 275 275 275 275 276 276
289 289 288 287 287 286 286 286 286 286 286 286 286 286 286 286 285 284 284 284 284 284 284 283 282 281 280 278 278 277 276 276 275 275 275 275 274 274 274 274 273 273 273 274 273 273 273 273 273 273 272 273 274 275 274 274 275 274 274 274 275 275
290 289 289 287 287 286 286 286 286 286 285 285 286 285 286 285 284 283 283 283 284 284 283 281 280 279 278 277 277 276 275 275 274 274 274 273 273 273 273 273 273 273 273 273 273 273 273 273 273 272 272 274 275 274 275 274 274 274 274 274 274 274
290 289 288 288 287 286 286 286 286 286 286 286 285 285 285 285 284 283 284 284 284 283 282 280 279 278 277 277 276 275 275 274 274 273 273 273 272 272 271 272 272 272 272 272 272 272 272 272 272 272 273 275 276 275 274 274 274 274 274 274 273 273
290 289 288 288 288 287 286 286 287 286 285 285 285 285 286 285 284 283 284 284 283 281 280 280 278 278 277 276 275 274 274 273 272 272 272 271 271 271 271 271 272 272 272 271 271 271 272 272 273 273 274 274 275 276 275 274 274 274 274 274 273 273
290 289 289 289 288 287 287 288 286 285 286 285 286 286 285 284 284 284 284 283 282 281 280 279 278 277 275 275 274 273 272 271 271 271 271 270 271 271 270 271 271 270 271 270 270 270 271 271 272 273 273 274 275 275 275 274 274 273 273 273 273 273
291 290 290 290 289 289 288 288 287 287 287 286 286 285 285 285 285 285 284 282 281 280 279 278 277 276 275 274 272 271 271 270 270 271 271 270 270 270 270 270 269 270 269 269 269 269 270 270 271 272 273 274 274 275 275 274 273 273 273 273 272 272
291 291 290 289 289 289 288 287 287 287 287 286 285 285 284 285 284 284 282 281 280 279 278 277 276 275 274 272 271 271 270 270 270 270 270 270 270 270 269 269 268 269 268 268 268 268 268 269 271 272 273 273 274 275 275 273 273 272 272 272 272 272
291 290 290 290 289 288 288 287 287 287 286 286 285 284 284 284 284 283 282 280 280 278 278 276 275 274 273 271 271 270 270 270 270 269 270 270 270 270 269 269 268 267 267 267 266 266 266 268 271 272 272 273 273 274 273 272 271 271 271 271 271 271
292 291 290 289 289 288 287 287 287 286 285 285 284 284 284 283 283 282 281 280 279 278 277 276 275 274 272 271 270 270 270 270 269 269 270 268 269 268 268 267 267 267 266 266 265 265 265 266 268 270 271 272 273 273 271 271 270 270 270 270 271 271
290 289 289 288 288 287 287 287 286 285 284 284 283 283 283 282 282 282 281 280 279 277 277 276 275 273 272 271 270 270 270 270 270 269 269 268 268 268 267 267 266 266 266 265 264 265 264 265 267 269 271 272 272 272 271 271 270 269 270 270 271 271
288 288 288 287 286 287 287 286 286 285 283 283 282 282 282 282 282 282 281 280 279 277 276 276 274 273 272 271 271 270 270 270 269 269 267 267 268 267 267 266 265 265 265 265 264 265 265 264 265 268 270 271 272 272 271 270 270 269 269 270 270 271
286 285 286 286 286 286 285 285 284 283 283 282 282 281 281 282 282 283 281 280 278 277 275 275 273 273 271 271 270 269 269 269 268 267 266 266 266 266 266 265 265 264 264 264 264 263 264 264 264 266 269 270 271 272 271 271 270 269 269 270 270 270
285 285 285 286 285 284 284 284 283 283 283 282 281 280 281 282 283 282 280 280 277 276 274 273 272 271 271 270 269 268 267 268 267 266 265 265 266 265 265 264 263 263 263 263 264 264 264 264 264 265 269 270 271 272 272 271 270 270 270 270 271 271
284 285 285 285 285 283 283 283 282 282 282 281 280 281 282 282 282 281 280 278 277 275 273 272 271 270 269 268 267 266 265 266 266 265 264 265 265 262 261 261 262 262 263 264 264 264 263 265 266 265 267 270 271 272 273 271 271 272 271 271 271 272
284 284 284 284 282 282 282 282 281 281 281 280 281 282 282 282 282 280 279 277 275 273 271 270 268 267 266 265 265 265 264 264 262 263 263 263 263 262 261 261 261 262 263 263 265 265 265 265 265 268 267 269 271 272 273 274 273 275 273 272 271 271
284 284 284 282 281 280 281 280 280 280 280 280 282 282 281 281 280 278 276 274 273 271 269 267 266 265 264 264 264 263 263 263 262 261 262 262 262 263 263 264 263 263 263 263 265 265 266 266 266 268 270 270 272 272 273 274 274 275 273 273 272 273
284 283 282 281 279 279 279 280 280 279 279 281 282 281 280 278 276 275 274 273 271 269 267 265 264 263 263 263 263 263 263 262 261 262 263 262 263 264 264 265 265 264 264 265 264 265 266 267 268 268 270 271 271 272 273 273 274 274 275 273 274 273
282 281 281 279 278 278 278 278 279 278 280 281 281 280 278 275 274 273 273 272 270 268 265 263 262 262 262 262 263 263 264 263 262 264 265 264 264 264 264 265 265 264 264 264 264 265 266 266 267 267 268 270 270 271 272 273 273 274 275 274 274 274
280 280 280 280 278 277 277 276 278 279 280 279 279 277 275 273 272 271 271 270 268 266 263 263 263 262 261 261 263 263 264 265 264 264 265 265 265 265 264 265 264 264 264 263 264 265 265 266 266 267 268 268 269 270 270 271 272 273 274 273 272 272
279 279 279 279 280 278 276 276 276 277 278 275 275 273 272 271 271 271 270 269 267 265 263 264 263 262 262 261 262 263 263 264 264 264 264 265 265 264 264 264 264 264 264 264 265 265 265 265 266 267 267 268 269 270 271 271 271 272 272 271 271 270
278 279 279 280 281 280 277 275 276 276 276 275 271 271 271 271 269 270 269 267 266 265 263 264 264 264 264 262 262 263 264 264 263 264 264 266 266 266 266 265 265 265 265 265 265 264 264 265 265 267 270 270 271 271 271 271 271 271 272 272 273 269
279 279 279 280 281 280 278 276 275 275 275 273 270 270 270 270 269 268 268 266 266 265 263 264 264 264 265 264 263 263 263 264 266 265 264 264 266 268 269 268 265 265 265 264 265 266 265 265 267 271 272 272 273 274 274 274 274 274 274 274 273 270
278 278 278 279 279 279 277 276 274 273 273 272 270 269 269 269 268 268 268 266 266 265 264 264 264 263 264 264 264 264 263 263 264 268 269 268 267 268 269 270 270 270 270 266 265 267 271 272 272 273 273 274 274 274 273 273 274 274 273 272 269 266
277 277 277 278 278 278 276 275 273 272 271 270 268 268 269 268 269 269 268 267 266 265 264 265 264 263 263 263 263 263 263 263 264 265 269 270 270 270 270 271 271 272 272 273 272 270 269 271 273 273 273 272 273 273 273 273 274 272 271 270 269 264
277 278 278 278 276 276 275 273 272 270 268 267 267 267 267 267 268 269 268 267 266 265 264 264 264 263 263 262 262 262 262 263 263 264 265 267 270 271 271 271 271 272 272 272 272 272 272 272 272 272 272 272 272 272 272 273 272 270 270 269 265 262
278 278 277 276 275 275 273 272 269 267 266 265 265 266 266 266 266 267 268 267 265 264 264 263 264 263 263 263 263 263 262 262 263 263 264 263 263 265 267 270 270 271 271 271 271 271 271 271 271 271 271 271 271 272 272 272 268 269 269 267 262 261
276 275 274 273 273 271 270 270 266 264 264 264 264 264 265 265 265 266 265 263 263 265 264 264 264 264 264 263 262 262 261 262 262 262 261 261 261 262 263 263 265 267 269 267 267 268 269 269 269 270 270 271 271 271 272 270 266 264 264 263 260 260
273 273 271 270 269 268 269 268 263 262 263 263 263 263 263 263 264 264 264 263 263 264 264 264 264 264 263 262 262 262 261 261 261 261 260 260 260 260 260 260 262 262 264 266 267 267 268 269 269 269 269 270 270 271 269 265 264 263 262 261 260 260
Wind_Speed
12 11 10 10 9 9 9 9 8 8 8 9 9 11 10 10 8 8 8 7 6 6 6 7 6 6 6 5 6 5 6 6 5 5 5 4 4 4 4 3 3 3 3 3 3 4 3 4 4 4 4 4 3 4 3 4 4 4 5 4 4 4
13 12 12 11 11 10 9 9 8 9 9 10 10 9 9 9 9 9 9 7 6 7 6 6 6 6 6 6 6 5 6 5 5 5 5 4 4 3 4 3 3 3 3 3 3 3 3 4 4 4 4 4 3 4 3 4 5 5 5 5 4 4
12 11 11 10 9 9 9 9 9 9 9 10 10 11 10 9 9 8 8 7 7 8 7 7 6 6 6 6 6 6 5 5 5 4 4 4 4 3 3 3 3 3 2 2 3 3 3 3 4 3 4 3 4 4 4 4 4 5 5 5 5 4
12 12 10 9 10 10 10 9 9 10 10 10 10 9 9 10 9 8 8 7 7 8 7 7 6 6 6 6 6 6 5 5 4 4 3 4 3 3 2 2 2 2 2 2 2 2 2 3 3 3 3 3 4 4 3 4 5 5 5 5 5 5
13 13 13 12 12 11 11 10 10 10 11 10 10 10 10 9 9 8 8 8 8 8 7 7 6 6 7 6 5 6 5 5 4 3 3 3 3 3 2 2 1 1 1 1 1 2 2 3 3 3 3 4 4 4 4 4 5 5 5 5 5 6
12 12 13 13 12 12 12 10 10 10 10 10 10 11 11 10 9 9 8 8 8 8 8 7 7 8 7 6 5 6 6 5 4 3 3 2 2 2 2 2 1 1 1 1 2 3 3 3 3 3 4 4 4 4 5 4 4 4 5 5 5 5
14 13 12 13 12 11 12 11 11 11 11 10 10 10 11 10 9 9 9 9 9 9 8 8 7 7 7 6 6 6 6 5 4 3 2 2 2 2 2 1 1 1 1 1 2 3 3 3 3 4 4 4 4 4 4 5 4 4 5 5 5 5
12 11 13 11 12 11 12 11 11 11 11 11 10 10 11 10 9 9 9 9 9 9 9 8 8 8 7 7 6 6 5 5 4 3 3 2 2 2 2 1 1 1 2 2 2 2 3 3 3 3 4 4 4 4 4 4 5 5 5 5 5 5
15 14 13 12 12 11 11 12 12 11 11 11 11 10 10 10 10 10 10 10 9 9 9 8 8 7 7 7 6 6 5 5 4 3 3 2 2 2 1 1 1 0 1 1 2 2 2 3 3 3 3 4 4 4 4 5 5 5 5 5 5 6
13 13 14 13 13 12 11 11 12 12 12 13 11 11 10 8 11 11 10 10 10 9 9 8 7 7 7 6 6 6 6 5 4 4 3 2 2 2 1 1 1 1 1 1 2 2 2 3 3 2 3 3 4 4 5 5 5 5 5 6 6 6
14 14 14 14 14 14 14 12 12 11 10 10 11 11 12 11 11 11 10 9 9 9 9 8 7 6 7 7 6 6 6 5 4 3 3 2 2 2 2 1 1 1 2 2 2 2 2 2 2 1 2 3 4 4 5 5 6 6 6 6 6 6
12 13 14 14 16 15 14 13 13 13 13 12 12 11 11 10 11 10 9 9 9 9 8 8 7 7 7 7 6 6 6 5 4 4 3 3 2 2 2 2 2 2 2 2 2 2 2 2 2 0 3 5 4 5 5 5 6 6 6 7 7 7
11 12 14 15 16 16 15 13 13 12 12 12 12 12 11 11 12 11 11 11 10 9 8 8 7 7 7 7 6 4 6 5 4 3 2 2 2 3 2 3 3 3 2 3 2 3 3 2 2 3 5 6 7 6 5 6 6 6 7 7 7 7
13 15 17 17 16 16 15 14 13 12 13 12 11 11 11 12 12 11 11 10 9 9 9 8 8 8 7 6 5 5 4 4 3 3 3 3 3 2 2 3 3 3 3 2 3 3 3 3 4 5 6 7 7 7 6 6 6 6 6 7 7 7
16 16 16 14 15 15 15 14 12 14 14 13 11 10 12 12 12 11 11 8 9 8 8 8 7 6 5 5 5 5 4 4 4 4 4 4 3 3 3 4 4 4 3 3 3 4 4 4 4 5 6 7 8 9 8 5 6 6 7 7 8 8
10 11 13 14 13 14 13 14 15 13 13 12 11 11 12 13 12 12 10 8 8 8 8 8 6 6 6 5 5 5 5 5 5 4 4 3 3 4 4 3 3 3 3 3 3 4 4 5 5 6 7 8 9 9 8 6 7 7 7 8 8 8
11 10 10 11 11 11 12 12 11 9 10 12 10 12 13 13 12 10 7 8 8 8 5 7 6 6 6 6 6 5 5 5 5 5 4 4 5 5 4 4 4 3 2 2 2 4 4 5 7 7 8 9 10 10 9 6 6 6 7 7 7 8
12 12 11 9 11 9 12 12 11 11 10 11 12 12 13 13 10 8 8 7 8 8 8 7 7 6 6 7 6 6 6 6 6 6 5 4 4 3 2 2 2 3 3 3 3 3 5 6 7 7 8 9 9 11 6 6 6 6 6 7 8 8
8 9 9 9 10 10 10 10 11 12 9 10 11 13 11 9 9 8 11 9 8 9 9 9 7 6 7 7 7 6 6 7 6 6 5 4 4 4 4 4 3 2 3 3 3 4 5 5 6 7 9 9 10 8 5 5 6 6 7 7 8 8
6 7 8 8 8 9 10 10 11 11 11 10 10 9 8 9 9 10 10 8 9 9 9 9 9 11 8 7 8 7 6 5 4 5 5 5 5 4 4 3 3 3 3 4 4 4 4 5 7 9 9 10 10 8 6 6 6 7 7 7 8 7
7 7 7 8 9 9 9 10 11 12 11 9 10 9 7 9 12 13 15 11 8 9 7 8 9 10 11 10 8 7 8 6 5 5 4 3 3 3 3 3 2 3 3 3 4 6 6 5 7 10 10 10 9 7 5 5 6 7 7 7 7 8
8 7 8 9 9 9 10 9 10 11 12 11 8 9 10 15 16 10 7 7 8 6 8 9 11 11 12 11 8 5 5 4 4 4 4 4 3 3 3 3 3 3 3 3 3 4 5 5 5 6 10 9 10 10 6 5 6 7 7 7 7 8
5 6 8 7 8 8 9 8 10 10 11 11 8 13 15 11 6 9 9 10 9 9 10 9 10 12 9 8 8 5 4 4 4 5 4 4 3 3 3 3 2 2 3 4 4 4 5 5 5 6 10 10 10 10 9 6 6 6 7 7 8 8
4 4 4 5 7 9 9 10 11 10 11 10 14 17 13 6 10 11 9 11 11 11 10 9 8 7 8 7 7 6 5 3 3 4 4 3 3 4 3 2 2 3 3 3 4 4 5 6 10 6 9 10 10 10 11 7 7 7 7 8 8 8
6 6 6 4 5 7 7 9 11 9 9 11 17 13 10 12 11 9 9 10 10 10 10 8 9 8 7 7 5 8 6 4 3 3 3 3 3 4 4 4 3 2 3 3 3 4 4 4 5 10 7 9 10 10 10 11 9 11 9 8 9 9
6 6 5 5 6 5 8 11 11 9 10 15 16 11 8 7 7 7 8 9 9 8 8 8 7 7 5 5 5 5 5 5 4 4 4 4 4 4 4 3 4 3 3 3 3 3 3 3 4 7 10 8 10 10 11 11 11 11 8 8 8 7
6 6 5 5 4 4 8 9 11 11 13 15 9 8 9 9 8 9 10 10 9 9 8 8 7 6 5 5 5 6 5 5 5 4 4 4 4 3 3 2 2 3 2 2 2 2 2 3 3 3 6 8 9 10 10 10 11 11 13 9 6 6
2 4 5 4 5 5 7 8 8 12 15 12 7 7 7 8 9 10 11 10 9 9 10 10 7 6 4 5 4 4 5 6 6 5 5 5 4 4 3 2 3 3 3 3 2 3 3 3 3 3 3 5 6 7 8 10 11 12 12 11 9 12
4 5 6 7 6 7 7 9 10 12 6 2 5 6 7 8 10 10 8 8 8 8 9 10 6 6 5 4 4 4 4 5 6 6 4 4 4 4 3 3 3 3 3 3 3 3 3 3 3 3 3 3 3 4 4 5 6 9 10 7 4 6
8 8 8 9 8 9 9 9 11 11 7 2 4 6 7 8 9 10 10 9 7 5 6 5 8 7 5 6 5 6 5 5 5 5 6 6 5 5 4 4 4 5 4 3 3 3 3 3 3 4 4 4 4 4 5 5 5 6 5 3 3 2
9 10 9 10 8 8 9 11 11 9 9 6 5 7 9 9 8 6 7 7 6 5 6 5 5 5 5 6 6 5 5 6 7 6 4 3 3 3 4 4 4 5 4 3 4 4 4 4 5 5 7 7 8 7 5 5 5 6 5 4 6 0
9 8 9 9 6 6 8 10 10 8 7 6 7 8 9 9 8 7 8 6 5 5 6 5 5 5 5 6 6 5 3 6 9 7 5 4 8 11 10 8 5 4 4 5 5 5 6 6 6 9 12 12 12 13 13 12 13 12 10 8 7 3
7 6 7 8 5 6 7 7 6 6 6 6 7 8 8 8 6 4 4 5 5 6 6 5 5 5 4 4 5 5 5 4 6 13 15 11 9 10 13 14 15 14 13 8 6 9 15 16 16 17 16 15 14 13 12 13 12 14 5 2 3 1
7 8 12 10 6 5 5 5 4 6 6 6 7 7 7 8 8 5 5 5 4 6 6 4 4 5 4 4 4 4 4 4 3 4 12 16 15 14 13 13 15 16 16 18 15 10 7 12 15 14 12 12 13 13 13 12 13 3 2 2 3 1
9 9 8 5 4 5 5 6 5 4 5 6 7 8 9 9 9 8 6 5 6 5 6 5 5 5 5 5 5 4 4 4 3 4 2 5 12 14 14 14 16 16 16 15 15 17 15 13 11 13 12 13 12 13 12 13 6 3 1 2 2 2
4 4 4 4 5 6 5 6 4 5 6 7 7 8 9 8 8 6 4 5 7 6 5 5 5 5 5 5 4 4 4 4 3 2 2 2 2 4 8 13 15 15 14 14 14 14 13 12 13 13 14 14 14 12 13 12 3 2 1 2 2 2
4 4 4 4 4 4 5 5 3 4 5 7 8 8 7 6 6 4 3 9 8 3 5 5 5 5 4 4 4 4 3 3 3 3 2 2 3 3 3 3 4 7 10 7 7 9 12 13 13 14 14 14 13 14 11 3 1 2 1 2 2 3
4 4 3 3 3 4 5 4 3 5 6 7 8 8 8 7 7 4 3 4 5 3 3 4 4 4 4 4 4 3 3 3 3 3 3 3 3 3 3 3 3 2 4 8 9 11 13 14 14 14 13 13 13 13 7 3 3 2 3 3 3 3
Wind_Direction
175 175 172 167 167 165 160 155 151 149 147 148 146 145 146 144 142 139 132 129 127 132 131 130 132 132 128 123 115 109 102 94 90 92 90 87 73 63 57 47 47 38 27 32 22 16 11 12 7 357 353 341 346 344 347 359 350 332 326 323 336 327
176 175 170 168 168 166 162 157 154 153 149 149 148 143 144 145 145 143 140 139 138 137 136 141 139 134 130 124 115 107 104 102 101 95 89 78 71 66 56 53 44 35 28 19 22 11 8 9 5 357 348 340 351 345 349 342 337 331 323 328 335 325
171 169 170 167 164 163 160 160 159 156 151 156 155 155 154 153 149 148 145 144 145 147 151 147 144 134 122 114 112 110 106 102 92 86 92 88 74 61 62 60 47 35 26 16 13 16 358 2 356 346 344 341 341 337 339 328 329 328 324 327 326 326
166 167 167 166 164 166 165 161 162 161 162 163 158 157 159 156 156 154 148 149 152 159 153 150 144 135 124 124 123 115 113 104 96 98 98 97 90 84 73 69 61 27 21 8 359 5 352 353 347 340 342 338 332 332 335 328 331 326 325 328 325 331
169 171 170 169 170 170 168 166 167 167 167 162 164 164 165 161 157 154 154 155 160 162 156 153 148 138 135 134 129 122 116 109 102 98 100 95 109 106 82 63 54 27 356 345 359 1 356 355 348 341 339 332 332 328 330 329 328 325 324 325 325 327
167 168 170 170 175 175 173 167 169 168 169 167 167 170 165 161 160 158 159 161 164 162 160 158 150 148 147 141 130 127 120 116 110 102 102 107 106 115 109 117 66 18 346 356 10 1 354 352 347 338 335 332 328 327 323 323 321 319 316 316 319 321
174 177 174 176 176 173 171 170 172 171 174 173 171 171 166 163 162 162 163 166 165 165 166 161 157 156 153 142 135 129 122 121 118 111 114 136 141 134 135 136 113 22 14 13 2 348 345 344 336 329 324 325 324 321 317 313 318 314 313 310 308 313
174 174 176 176 175 172 171 171 173 176 175 176 171 169 167 168 166 166 166 169 169 170 171 166 162 161 153 143 136 132 128 122 125 132 141 146 159 148 143 111 44 74 6 358 338 334 329 331 324 316 314 319 322 315 314 315 313 311 308 307 305 308
185 182 176 176 172 170 172 172 176 177 175 173 173 173 169 169 167 168 171 173 172 173 173 169 167 159 152 147 140 134 131 130 131 148 153 152 156 148 134 96 116 15 36 312 327 311 324 316 308 306 316 320 321 321 319 318 312 308 308 301 303 300
178 177 178 172 174 170 175 175 179 177 175 176 172 175 171 171 170 171 175 174 176 175 173 170 163 156 149 140 135 136 135 134 143 150 153 156 172 140 135 137 129 192 198 276 290 296 301 301 294 304 326 335 331 324 317 311 308 305 303 300 297 299
180 178 176 177 172 173 176 175 178 177 177 176 176 178 178 171 170 174 175 176 176 175 167 158 152 145 135 138 138 138 140 144 149 157 158 165 156 137 147 166 177 209 224 233 251 264 282 274 276 299 3 333 324 316 306 302 300 300 298 299 297 296
177 177 174 176 177 175 176 177 178 179 176 177 178 178 174 163 171 173 176 178 178 166 158 152 147 147 144 148 150 145 145 148 156 163 168 168 163 162 160 182 209 213 226 237 253 263 254 256 251 162 295 296 297 301 295 296 292 293 296 297 297 294
175 169 177 182 180 180 179 177 176 174 176 178 177 174 168 165 173 178 179 183 173 155 151 149 154 150 157 156 146 141 146 154 158 165 169 173 167 179 179 208 205 213 217 226 250 261 263 248 233 240 285 295 297 297 292 290 290 287 289 289 290 293
180 185 190 188 181 179 178 176 175 169 179 180 176 172 165 170 178 180 181 178 151 151 153 157 152 157 159 151 146 146 150 150 156 169 177 181 180 191 186 213 206 212 218 223 243 252 253 261 253 266 283 294 295 295 293 288 287 287 287 288 288 289
193 194 195 188 185 181 181 171 166 180 180 180 173 156 165 174 180 182 181 157 149 152 159 154 156 160 156 156 148 147 144 151 164 179 183 192 184 180 195 206 194 212 215 227 242 256 263 262 262 269 286 293 295 297 296 286 283 283 283 283 285 287
197 198 196 190 185 177 168 171 181 184 180 174 164 153 166 174 180 180 167 146 151 156 158 157 159 159 160 151 147 149 154 164 180 184 187 176 177 194 197 194 202 211 217 230 251 262 267 270 266 277 287 293 296 297 295 286 283 280 278 278 281 284
185 181 178 171 169 167 172 182 181 170 169 165 155 162 169 179 176 171 148 150 155 154 156 161 162 161 157 151 154 157 166 171 180 179 187 180 191 188 193 194 201 207 212 235 248 260 271 269 269 277 287 294 298 297 298 288 283 278 275 275 273 280
183 181 178 164 170 169 176 177 173 169 166 159 162 167 173 175 169 158 149 154 164 164 168 160 165 162 158 159 159 163 175 175 181 183 189 184 187 185 182 192 184 200 216 228 233 250 264 268 275 283 291 296 297 300 299 288 278 276 274 274 274 276
181 175 165 164 169 159 166 171 168 168 138 143 166 169 172 163 165 166 170 177 169 169 169 170 168 163 164 164 161 174 179 174 179 186 182 177 189 181 188 183 193 203 213 223 228 240 260 270 282 286 289 291 293 300 291 281 273 271 275 275 277 277
122 134 149 145 152 156 163 164 166 162 156 156 139 155 157 163 174 180 179 178 176 165 168 176 170 160 159 163 173 173 176 166 174 183 183 176 180 180 178 181 188 206 219 224 230 235 249 268 279 284 284 284 286 284 280 276 277 276 277 279 278 279
137 135 138 145 153 163 158 156 161 163 165 153 152 158 157 179 191 188 179 177 159 167 169 166 156 165 162 163 174 168 172 166 175 172 166 176 167 166 167 179 194 204 224 225 233 245 248 259 271 277 277 275 275 276 269 268 272 275 277 280 285 283
118 134 151 160 159 151 146 154 162 171 169 174 147 167 185 195 199 188 143 150 150 156 158 167 180 182 181 170 157 151 151 144 163 163 167 171 172 172 178 177 196 199 233 238 234 238 240 246 253 256 264 266 268 268 264 267 266 272 279 281 286 289
152 159 165 159 153 144 145 154 160 173 184 173 156 195 203 199 163 167 149 160 153 173 180 171 181 182 179 167 159 141 134 154 166 160 165 166 175 162 170 172 193 214 240 244 241 240 243 236 242 254 259 262 262 263 264 259 261 267 275 280 283 286
152 145 148 159 138 139 153 162 171 184 175 180 194 207 204 156 180 176 167 180 182 181 178 179 175 167 160 149 149 137 141 150 147 154 159 184 167 152 167 183 205 220 235 241 239 239 242 245 244 244 257 260 262 262 259 256 257 263 271 277 283 290
168 175 169 131 132 135 157 165 178 186 185 194 211 196 181 191 185 182 182 180 181 180 179 172 165 163 154 147 136 143 144 137 140 153 169 176 151 162 175 191 201 220 235 241 243 234 229 233 243 246 246 253 258 262 260 259 262 272 279 284 287 282
167 156 138 121 130 148 167 171 180 188 191 211 217 203 193 185 184 174 177 181 182 172 169 162 152 142 126 142 140 132 138 152 152 167 184 182 188 182 182 194 186 202 219 225 242 233 231 227 228 244 243 249 257 261 264 266 270 275 276 276 270 278
168 150 137 139 147 158 177 187 181 188 202 221 204 189 184 181 169 172 182 185 180 174 161 145 135 140 141 145 144 147 153 149 157 185 188 174 199 197 181 196 188 207 227 236 238 247 243 237 232 238 252 259 267 268 267 267 271 278 283 283 284 294
118 151 168 154 160 173 187 198 193 193 215 218 193 182 172 167 170 182 191 185 177 167 154 151 132 132 137 149 159 161 168 162 179 201 188 182 193 186 184 194 197 207 217 224 231 237 239 235 242 248 252 259 266 264 260 264 274 281 281 278 281 288
183 197 197 208 193 188 195 200 214 220 229 157 174 166 163 169 181 188 184 180 160 144 145 154 157 156 151 167 165 174 182 177 183 198 198 187 183 185 185 191 194 208 215 214 222 231 229 235 232 248 251 246 247 247 257 266 274 283 285 284 274 284
197 206 207 220 209 195 201 204 216 222 220 169 143 152 158 174 185 190 189 175 144 148 155 168 161 159 161 177 177 178 184 188 193 196 200 191 186 175 188 182 196 201 208 210 212 212 222 230 236 235 244 241 239 243 252 268 276 280 282 228 253 252
200 211 210 223 216 200 203 214 220 215 208 187 152 151 170 186 187 186 168 157 139 151 155 172 163 178 168 167 181 200 190 185 190 200 213 214 197 192 180 189 199 197 201 199 202 202 223 233 238 234 237 243 239 246 252 273 273 275 277 223 277 285
207 215 221 233 225 204 209 218 222 214 203 178 168 166 180 181 164 171 175 162 164 156 153 176 166 176 174 162 176 183 216 220 209 206 197 206 210 218 220 209 207 197 185 197 214 201 218 226 237 253 253 252 254 257 272 277 278 278 278 281 306 341
215 224 239 244 231 220 220 223 218 205 200 186 176 177 181 165 169 172 167 162 181 171 161 162 164 169 176 174 171 179 190 203 224 225 227 223 213 217 224 227 229 227 221 209 212 227 236 250 254 255 253 254 254 265 274 277 276 281 291 354 46 0
213 219 231 237 230 231 227 228 218 198 189 177 172 176 178 181 179 180 180 172 158 153 163 167 163 156 172 180 175 180 176 198 203 218 221 225 226 226 228 230 233 235 237 239 238 231 225 248 255 259 265 268 268 267 268 271 278 274 107 39 54 282
211 220 233 239 226 222 219 222 214 168 170 171 171 176 186 191 196 200 177 146 149 157 167 175 167 171 172 176 174 179 183 193 200 216 213 210 225 231 236 241 244 246 246 245 248 251 254 252 249 251 253 257 261 264 267 267 263 128 25 63 312 216
239 236 237 233 231 229 223 227 197 162 167 162 169 180 190 192 198 200 184 147 149 154 167 177 173 171 180 178 176 178 174 191 199 203 199 183 195 221 238 243 246 247 246 249 248 249 250 256 260 263 263 262 261 261 262 264 179 251 278 207 195 241
244 248 234 227 221 218 221 228 172 150 156 164 168 175 183 182 180 180 159 155 159 156 162 168 174 169 167 161 166 168 174 185 183 183 184 209 218 231 221 198 223 234 235 235 244 248 252 256 261 260 260 258 258 260 257 167 167 263 227 179 176 209
235 245 222 198 202 208 219 211 135 151 153 160 164 171 178 169 169 156 142 145 158 153 161 164 163 162 158 156 160 156 167 165 173 186 204 209 225 234 251 265 238 225 249 253 254 255 256 256 254 256 255 258 256 259 179 198 229 225 227 212 207 205